H1 CPF 2 NER 2023 5 29 9 149 01 glonass143 H2 2007501 9143 46805 2023 5 29 0 0 0 2023 6 1 23 45 0 900 1 1 0 0 0 1 H9 10 0 60093 0.00000 0 24545013.008 -4692008.784 5175891.993 10 0 60093 900.00000 0 23715661.831 -4567602.879 8247270.618 10 0 60093 1800.00000 0 22557197.719 -4243487.273 11158673.380 10 0 60093 2700.00000 0 21115765.790 -3684345.223 13853653.951 10 0 60093 3600.00000 0 19445747.750 -2865016.176 16279971.230 10 0 60093 4500.00000 0 17607517.086 -1771810.274 18390595.934 10 0 60093 5400.00000 0 15664964.428 -403340.256 20144615.883 10 0 60093 6300.00000 0 13682896.106 1229164.931 21508023.147 10 0 60093 7200.00000 0 11724413.990 3102078.910 22454368.561 10 0 60093 8100.00000 0 9848385.080 5180121.160 22965271.614 10 0 60093 9000.00000 0 8107105.485 7417595.230 23030776.334 10 0 60093 9900.00000 0 6544255.212 9760071.875 22649546.559 10 0 60093 10800.00000 0 5193228.146 12146448.665 21828896.754 10 0 60093 11700.00000 0 4075906.047 14511301.997 20584657.412 10 0 60093 12600.00000 0 3201927.151 16787435.049 18940877.003 10 0 60093 13500.00000 0 2568479.462 18908516.824 16929365.337 10 0 60093 14400.00000 0 2160627.073 20811703.230 14589086.168 10 0 60093 15300.00000 0 1952155.648 22440131.349 11965409.774 10 0 60093 16200.00000 0 1906901.419 23745182.895 9109239.099 10 0 60093 17100.00000 0 1980507.538 24688421.981 6076025.649 10 0 60093 18000.00000 0 2122533.491 25243125.560 2924693.891 10 0 60093 18900.00000 0 2278828.008 25395341.753 -283505.054 10 0 60093 19800.00000 0 2394064.480 25144430.936 -3486187.876 10 0 60093 20700.00000 0 2414330.693 24503066.244 -6621057.892 10 0 60093 21600.00000 0 2289662.107 23496693.027 -9627123.731 10 0 60093 22500.00000 0 1976410.195 22162469.732 -12445893.305 10 0 60093 23400.00000 0 1439344.180 20547734.755 -15022518.932 10 0 60093 24300.00000 0 653395.931 18708063.909 -17306870.534 10 0 60093 25200.00000 0 -395027.111 16705000.437 -19254515.484 10 0 60093 26100.00000 0 -1707217.631 14603553.302 -20827585.618 10 0 60093 27000.00000 0 -3271868.645 12469568.999 -21995514.479 10 0 60093 27900.00000 0 -5065311.866 10367087.260 -22735630.598 10 0 60093 28800.00000 0 -7052285.072 8355791.357 -23033595.526 10 0 60093 29700.00000 0 -9187197.043 6488659.418 -22883678.577 10 0 60093 30600.00000 0 -11415837.747 4809914.364 -22288863.371 10 0 60093 31500.00000 0 -13677462.742 3353357.321 -21260784.556 10 0 60093 32400.00000 0 -15907165.100 2141153.037 -19819496.309 10 0 60093 33300.00000 0 -18038436.188 1183116.694 -17993077.385 10 0 60093 34200.00000 0 -20005808.628 476530.469 -15817080.605 10 0 60093 35100.00000 0 -21747471.359 6495.836 -13333837.607 10 0 60093 36000.00000 0 -23207747.838 -253194.799 -10591632.453 10 0 60093 36900.00000 0 -24339334.077 -338705.404 -7643760.306 10 0 60093 37800.00000 0 -25105203.274 -294380.932 -4547489.597 10 0 60093 38700.00000 0 -25480097.759 -170625.419 -1362948.021 10 0 60093 39600.00000 0 -25451546.247 -21524.106 1848045.730 10 0 60093 40500.00000 0 -25020364.358 97689.101 5023181.606 10 0 60093 41400.00000 0 -24200617.993 133211.272 8100865.755 10 0 60093 42300.00000 0 -23019051.657 35187.745 11021412.456 10 0 60093 43200.00000 0 -21514006.148 -239939.477 13728197.407 10 0 60093 44100.00000 0 -19733871.215 -727351.585 16168750.264 10 0 60093 45000.00000 0 -17735138.053 -1452128.966 18295765.701 10 0 60093 45900.00000 0 -15580132.875 -2427956.235 20068014.015 10 0 60093 46800.00000 0 -13334525.756 -3656311.269 21451134.370 10 0 60093 47700.00000 0 -11064718.057 -5126172.957 22418296.068 10 0 60093 48600.00000 0 -8835216.387 -6814260.937 22950715.718 10 0 60093 49500.00000 0 -6706101.463 -8685798.551 23038020.823 10 0 60093 50400.00000 0 -4730696.182 -10695768.607 22678453.012 10 0 60093 51300.00000 0 -2953528.879 -12790611.120 21878906.942 10 0 60093 52200.00000 0 -1408675.609 -14910293.898 20654803.774 10 0 60093 53100.00000 0 -118549.718 -16990671.092 19029801.018 10 0 60093 54000.00000 0 906811.483 -18966032.713 17035343.473 10 0 60093 54900.00000 0 1669933.662 -20771739.704 14710062.946 10 0 60093 55800.00000 0 2185558.551 -22346835.149 12099037.362 10 0 60093 56700.00000 0 2479778.056 -23636522.636 9252922.666 10 0 60093 57600.00000 0 2588686.071 -24594407.890 6226973.665 10 0 60093 58500.00000 0 2556605.130 -25184409.156 3079972.361 10 0 60093 59400.00000 0 2433963.181 -25382255.458 -126915.445 10 0 60093 60300.00000 0 2274910.844 -25176508.882 -3331332.873 10 0 60093 61200.00000 0 2134780.781 -24569067.041 -6470950.197 10 0 60093 62100.00000 0 2067497.720 -23575123.770 -9484684.149 10 0 60093 63000.00000 0 2123049.983 -22222589.125 -12313893.687 10 0 60093 63900.00000 0 2345130.822 -20550992.662 -14903528.043 10 0 60093 64800.00000 0 2769050.659 -18609915.958 -17203203.920 10 0 60093 65700.00000 0 3420009.776 -16457020.218 -19168190.318 10 0 60093 66600.00000 0 4311805.566 -14155751.900 -20760281.407 10 0 60093 67500.00000 0 5446029.948 -11772822.700 -21948540.395 10 0 60093 68400.00000 0 6811791.681 -9375569.510 -22709900.059 10 0 60093 69300.00000 0 8385976.018 -7029304.754 -23029608.521 10 0 60093 70200.00000 0 10134031.496 -4794767.581 -22901512.075 10 0 60093 71100.00000 0 12011251.371 -2725781.795 -22328169.987 10 0 60093 72000.00000 0 13964496.478 -867217.558 -21320799.493 10 0 60093 72900.00000 0 15934287.709 746659.174 -19899052.417 10 0 60093 73800.00000 0 17857180.848 2093381.843 -18090628.051 10 0 60093 74700.00000 0 19668324.617 3162974.733 -15930729.987 10 0 60093 75600.00000 0 21304095.060 3958113.377 -13461377.623 10 0 60093 76500.00000 0 22704696.197 4493749.021 -10730585.805 10 0 60093 77400.00000 0 23816618.168 4796214.628 -7791428.677 10 0 60093 78300.00000 0 24594850.108 4901851.711 -4701006.103 10 0 60093 79200.00000 0 25004755.193 4855217.301 -1519332.889 10 0 60093 80100.00000 0 25023529.529 4706947.973 1691827.343 10 0 60093 81000.00000 0 24641183.995 4511372.117 4870160.772 10 0 60093 81900.00000 0 23861008.189 4323972.077 7954011.062 10 0 60093 82800.00000 0 22699497.360 4198803.906 10883572.567 10 0 60093 83700.00000 0 21185745.609 4185984.042 13602045.994 10 0 60093 84600.00000 0 19360330.913 4329349.174 16056734.394 10 0 60093 85500.00000 0 17273738.544 4664388.101 18200058.622 10 0 60094 0.00000 0 14984388.745 5216532.765 19990473.119 10 0 60094 900.00000 0 12556349.153 5999880.947 21393265.840 10 0 60094 1800.00000 0 10056829.748 7016403.876 22381225.301 10 0 60094 2700.00000 0 7553559.575 8255673.681 22935165.691 10 0 60094 3600.00000 0 5112156.290 9695122.319 23044297.967 10 0 60094 4500.00000 0 2793595.573 11300822.603 22706441.026 10 0 60094 5400.00000 0 651884.589 13028759.990 21928068.693 10 0 60094 6300.00000 0 -1267964.874 14826543.524 20724191.273 10 0 60094 7200.00000 0 -2931580.193 16635485.894 19118073.326 10 0 60094 8100.00000 0 -4316421.016 18392967.066 17140792.253 10 0 60094 9000.00000 0 -5412472.536 20034983.779 14830645.209 10 0 60094 9900.00000 0 -6222410.448 21498778.993 12232414.810 10 0 60094 10800.00000 0 -6761231.096 22725441.510 9396506.915 10 0 60094 11700.00000 0 -7055362.678 23662366.743 6377976.455 10 0 60094 12600.00000 0 -7141295.257 24265474.839 3235459.808 10 0 60094 13500.00000 0 -7063787.787 24501092.225 30034.339 10 0 60094 14400.00000 0 -6873728.438 24347416.447 -3175972.497 10 0 60094 15300.00000 0 -6625739.413 23795501.573 -6320200.751 10 0 60094 16200.00000 0 -6375628.535 22849721.644 -9341477.839 10 0 60094 17100.00000 0 -6177796.523 21527691.708 -12181016.055 10 0 60094 18000.00000 0 -6082710.875 19859649.016 -14783563.499 10 0 60094 18900.00000 0 -6134554.427 17887319.881 -17098485.264 10 0 60094 19800.00000 0 -6369149.203 15662319.444 -19080753.239 10 0 60094 20700.00000 0 -6812244.301 13244151.373 -20691824.854 10 0 60094 21600.00000 0 -7478241.037 10697891.239 -21900393.596 10 0 60094 22500.00000 0 -8369409.852 8091650.463 -22682996.802 10 0 60094 23400.00000 0 -9475632.582 5493926.770 -23024469.185 10 0 60094 24300.00000 0 -10774681.430 2970951.493 -22918233.723 10 0 60094 25200.00000 0 -12233023.300 584143.943 -22366424.696 10 0 60094 26100.00000 0 -13807115.997 -1612221.688 -21379840.932 10 0 60094 27000.00000 0 -15445142.147 -3573040.576 -19977730.547 10 0 60094 27900.00000 0 -17089108.300 -5264009.469 -18187411.653 10 0 60094 28800.00000 0 -18677221.287 -6662800.138 -16043736.582 10 0 60094 29700.00000 0 -20146442.303 -7759726.680 -13588410.212 10 0 60094 30600.00000 0 -21435111.646 -8557880.506 -10869175.703 10 0 60094 31500.00000 0 -22485534.025 -9072729.136 -7938883.606 10 0 60094 32400.00000 0 -23246415.993 -9331197.433 -4854462.584 10 0 60094 33300.00000 0 -23675053.212 -9370271.573 -1675811.903 10 0 60094 34200.00000 0 -23739175.798 -9235185.995 1535362.529 10 0 60094 35100.00000 0 -23418374.336 -8977271.061 4716745.746 10 0 60094 36000.00000 0 -22705046.831 -8651553.192 7806621.520 10 0 60094 36900.00000 0 -21604826.943 -8314209.499 10745066.805 10 0 60094 37800.00000 0 -20136475.593 -8019984.791 13475109.734 10 0 60094 38700.00000 0 -18331240.436 -7819680.152 15943828.983 10 0 60094 39600.00000 0 -16231709.796 -7757819.061 18103373.583 10 0 60094 40500.00000 0 -13890208.543 -7870589.337 19911884.068 10 0 60094 41400.00000 0 -11366802.231 -8184147.497 21334297.822 10 0 60094 42300.00000 0 -8726991.823 -8713356.914 22343023.783 10 0 60094 43200.00000 0 -6039193.926 -9461013.007 22918474.150 10 0 60094 44100.00000 0 -3372110.043 -10417588.524 23049443.327 10 0 60094 45000.00000 0 -792092.935 -11561510.361 22733327.081 10 0 60094 45900.00000 0 1639381.851 -12859957.368 21976177.658 10 0 60094 46800.00000 0 3868035.479 -14270147.015 20792593.450 10 0 60094 47700.00000 0 5848800.998 -15741058.343 19205444.751 10 0 60094 48600.00000 0 7547451.286 -17215520.376 17245439.995 10 0 60094 49500.00000 0 8941772.657 -18632579.664 14950539.881 10 0 60094 50400.00000 0 10022235.670 -19930048.531 12365229.692 10 0 60094 51300.00000 0 10792135.546 -21047127.636 9539662.958 10 0 60094 52200.00000 0 11267196.622 -21926992.776 6528692.315 10 0 60094 53100.00000 0 11474657.817 -22519236.833 3390805.940 10 0 60094 54000.00000 0 11451877.997 -22782063.415 186990.104 10 0 60094 54900.00000 0 11244520.586 -22684138.819 -3020459.852 10 0 60094 55800.00000 0 10904394.715 -22206023.105 -6169156.422 10 0 60094 56700.00000 0 10487045.017 -21341118.739 -9197840.309 10 0 60094 57600.00000 0 10049192.961 -20096095.634 -12047579.640 10 0 60094 58500.00000 0 9646139.039 -18490773.618 -14662923.758 10 0 60094 59400.00000 0 9329236.772 -16557466.410 -16992988.350 10 0 60094 60300.00000 0 9143546.387 -14339813.990 -18992450.182 10 0 60094 61200.00000 0 9125768.232 -11891151.907 -20622431.676 10 0 60094 62100.00000 0 9302543.966 -9272485.553 -21851258.010 10 0 60094 63000.00000 0 9689197.754 -6550153.901 -22655072.135 10 0 60094 63900.00000 0 10288970.975 -3793280.127 -23018296.018 10 0 60094 64800.00000 0 11092782.872 -1071115.220 -22933929.587 10 0 60094 65700.00000 0 12079527.399 1549615.137 -22403682.018 10 0 60094 66600.00000 0 13216893.803 4007250.402 -21437933.248 10 0 60094 67500.00000 0 14462676.446 6247516.796 -20055526.852 10 0 60094 68400.00000 0 15766518.826 8225535.012 -18283398.580 10 0 60094 69300.00000 0 17072018.420 9907431.533 -16156047.993 10 0 60094 70200.00000 0 18319103.876 11271487.823 -13714863.586 10 0 60094 71100.00000 0 19446584.574 12308780.951 -11007314.615 10 0 60094 72000.00000 0 20394765.283 13023290.568 -8086025.480 10 0 60094 72900.00000 0 21108015.901 13431469.495 -5007750.775 10 0 60094 73800.00000 0 21537188.155 13561297.688 -1832271.102 10 0 60094 74700.00000 0 21641777.520 13450860.908 1378768.624 10 0 60094 75600.00000 0 21391739.415 13146515.371 4563055.628 10 0 60094 76500.00000 0 20768883.261 12700716.861 7658817.081 10 0 60094 77400.00000 0 19767785.783 12169606.696 10606015.672 10 0 60094 78300.00000 0 18396185.062 11610456.937 13347509.868 10 0 60094 79200.00000 0 16674838.631 11079082.830 15830156.592 10 0 60094 80100.00000 0 14636851.160 10627331.586 18005835.343 10 0 60094 81000.00000 0 12326499.338 10300753.132 19832374.539 10 0 60094 81900.00000 0 9797602.217 10136550.612 21274362.875 10 0 60094 82800.00000 0 7111504.003 10161896.598 22303830.688 10 0 60094 83700.00000 0 4334752.125 10392685.631 22900788.892 10 0 60094 84600.00000 0 1536565.736 10832775.537 23053615.582 10 0 60094 85500.00000 0 -1213801.520 11473749.654 22759283.124 10 0 60095 0.00000 0 -3849696.183 12295210.490 22023421.458 10 0 60095 900.00000 0 -6309590.454 13265593.807 20860215.591 10 0 60095 1800.00000 0 -8539391.221 14343468.888 19292139.714 10 0 60095 2700.00000 0 -10494442.367 15479273.041 17349530.948 10 0 60095 3600.00000 0 -12141134.212 16617407.557 15070010.807 10 0 60095 4500.00000 0 -13458055.010 17698608.370 12497764.220 10 0 60095 5400.00000 0 -14436636.496 18662492.333 9682689.197 10 0 60095 6300.00000 0 -15081266.822 19450172.194 6679432.819 10 0 60095 7200.00000 0 -15408866.307 20006829.970 3546331.826 10 0 60095 8100.00000 0 -15447944.173 20284139.658 344278.242 10 0 60095 9000.00000 0 -15237176.368 20242436.222 -2864467.720 10 0 60095 9900.00000 0 -14823564.964 19852538.114 -6017493.838 10 0 60095 10800.00000 0 -14260257.586 19097145.140 -9053456.717 10 0 60095 11700.00000 0 -13604119.826 17971751.318 -11913282.680 10 0 60095 12600.00000 0 -12913164.221 16485032.967 -14541324.372 10 0 60095 13500.00000 0 -12243945.458 14658694.514 -16886449.798 10 0 60095 14400.00000 0 -11649032.813 12526777.522 -18903041.979 10 0 60095 15300.00000 0 -11174667.418 10134461.187 -20551889.344 10 0 60095 16200.00000 0 -10858703.873 7536404.006 -21800949.436 10 0 60095 17100.00000 0 -10728923.451 4794695.513 -22625971.153 10 0 60095 18000.00000 0 -10801790.247 1976503.351 -23010963.730 10 0 60095 18900.00000 0 -11081702.618 -848486.531 -22948503.736 10 0 60095 19800.00000 0 -11560771.340 -3610730.294 -22439874.595 10 0 60095 20700.00000 0 -12219133.537 -6243476.922 -21495036.367 10 0 60095 21600.00000 0 -13025788.848 -8685299.566 -20132426.757 10 0 60095 22500.00000 0 -13939922.355 -10882402.990 -18378597.504 10 0 60095 23400.00000 0 -14912658.250 -12790612.018 -16267693.441 10 0 60095 24300.00000 0 -15889170.157 -14376959.326 -13840784.487 10 0 60095 25200.00000 0 -16811058.998 -15620807.702 -11145063.624 10 0 60095 26100.00000 0 -17618898.034 -16514461.389 -8232926.606 10 0 60095 27000.00000 0 -18254837.661 -17063242.514 -5160951.397 10 0 60095 27900.00000 0 -18665160.031 -17285031.074 -1988797.355 10 0 60095 28800.00000 0 -18802675.701 -17209289.314 1221954.193 10 0 60095 29700.00000 0 -18628861.197 -16875613.015 4408995.260 10 0 60095 30600.00000 0 -18115647.331 -16331871.876 7510498.982 10 0 60095 31500.00000 0 -17246782.863 -15632018.321 10466316.322 10 0 60095 32400.00000 0 -16018715.941 -14833657.701 13219138.539 10 0 60095 33300.00000 0 -14440956.013 -13995482.631 15715603.111 10 0 60095 34200.00000 0 -12535900.559 -13174679.580 17907322.099 10 0 60095 35100.00000 0 -10338133.274 -12424416.671 19751813.623 10 0 60095 36000.00000 0 -7893222.149 -11791517.975 21213319.138 10 0 60095 36900.00000 0 -5256066.529 -11314421.599 22263491.443 10 0 60095 37800.00000 0 -2488860.734 -11021506.856 22881940.810 10 0 60095 38700.00000 0 341242.520 -10929860.380 23056629.243 10 0 60095 39600.00000 0 3164673.316 -11044532.854 22784105.533 10 0 60095 40500.00000 0 5912086.330 -11358317.593 22069576.606 10 0 60095 41400.00000 0 8516995.063 -11852060.688 20926813.468 10 0 60095 42300.00000 0 10918290.334 -12495490.304 19377892.957 10 0 60095 43200.00000 0 13062539.490 -13248531.102 17452779.434 10 0 60095 44100.00000 0 14905971.482 -14063049.429 15188753.496 10 0 60095 45000.00000 0 16416065.625 -14884956.654 12629697.718 10 0 60095 45900.00000 0 17572678.098 -15656582.725 9825252.310 10 0 60095 46800.00000 0 18368659.241 -16319220.261 6829856.247 10 0 60095 47700.00000 0 18809935.880 -16815731.820 3701692.058 10 0 60095 48600.00000 0 18915055.345 -17093109.862 501554.584 10 0 60095 49500.00000 0 18714210.566 -17104880.507 -2708334.106 10 0 60095 50400.00000 0 18247787.651 -16813248.414 -5865540.068 10 0 60095 51300.00000 0 17564497.717 -16190890.831 -8908638.709 10 0 60095 52200.00000 0 16719172.494 -15222323.650 -11778417.271 10 0 60095 53100.00000 0 15770317.603 -13904780.310 -14419034.203 10 0 60095 54000.00000 0 14777527.693 -12248565.188 -16779112.083 10 0 60095 54900.00000 0 13798873.409 -10276865.312 -18812742.163 10 0 60095 55800.00000 0 12888371.222 -8025027.326 -20480380.557 10 0 60095 56700.00000 0 12093643.390 -5539329.136 -21749618.523 10 0 60095 57600.00000 0 11453867.009 -2875297.016 -22595811.915 10 0 60095 58500.00000 0 10998098.629 -95637.974 -23002557.869 10 0 60095 59400.00000 0 10744044.789 2732126.784 -22962009.849 10 0 60095 60300.00000 0 10697329.826 5538229.128 -22475025.417 10 0 60095 61200.00000 0 10851291.214 8253315.507 -21551144.278 10 0 60095 62100.00000 0 11187310.405 10811092.502 -20208397.433 10 0 60095 63000.00000 0 11675664.552 13150846.962 -18472951.440 10 0 60095 63900.00000 0 12276862.605 15219736.588 -16378594.901 10 0 60095 64800.00000 0 12943408.856 16974756.506 -13966077.306 10 0 60095 65700.00000 0 13621919.096 18384300.928 -11282313.170 10 0 60095 66600.00000 0 14255499.652 19429255.926 -8379467.073 10 0 60095 67500.00000 0 14786288.586 20103579.011 -5313937.520 10 0 60095 68400.00000 0 15158051.483 20414342.696 -2145259.543 10 0 60095 69300.00000 0 15318722.020 20381241.665 1065052.378 10 0 60095 70200.00000 0 15222779.911 20035585.661 4254698.366 10 0 60095 71100.00000 0 14833365.702 19418821.657 7361800.823 10 0 60095 72000.00000 0 14124043.092 18580648.530 10326102.158 10 0 60095 72900.00000 0 13080134.307 17576804.327 13090129.379 10 0 60095 73800.00000 0 11699572.016 16466619.663 15600303.220 10 0 60095 74700.00000 0 9993231.540 15310440.311 17807970.703 10 0 60095 75600.00000 0 7984728.724 14167027.153 19670341.693 10 0 60095 76500.00000 0 5709691.056 13091042.307 21151312.107 10 0 60095 77400.00000 0 3214531.331 12130726.357 22222158.501 10 0 60095 78300.00000 0 554773.667 11325863.477 22862091.374 10 0 60095 79200.00000 0 -2206999.977 10706119.084 23058657.041 10 0 60095 80100.00000 0 -5003498.985 10289819.187 22807980.606 10 0 60095 81000.00000 0 -7765273.015 10083222.251 22114845.414 10 0 60095 81900.00000 0 -10423356.399 10080313.984 20992607.122 10 0 60095 82800.00000 0 -12911899.543 10263133.852 19462943.476 10 0 60095 83700.00000 0 -15170679.131 10602619.951 17555443.783 10 0 60095 84600.00000 0 -17147383.616 11059937.282 15307044.982 10 0 60095 85500.00000 0 -18799579.305 11588234.107 12761324.206 10 0 60096 0.00000 0 -20096275.244 12134752.849 9967660.805 10 0 60096 900.00000 0 -21019022.179 12643207.132 6980281.730 10 0 60096 1800.00000 0 -21562497.862 13056323.880 3857212.128 10 0 60096 2700.00000 0 -21734556.356 13318443.749 659146.344 10 0 60096 3600.00000 0 -21555737.401 13378068.533 -2551734.861 10 0 60096 4500.00000 0 -21058257.336 13190247.080 -5712978.787 10 0 60096 5400.00000 0 -20284524.228 12718697.515 -8763082.387 10 0 60096 6300.00000 0 -19285240.241 11937574.585 -11642696.312 10 0 60096 7200.00000 0 -18117171.944 10832805.986 -14295787.018 10 0 60096 8100.00000 0 -16840683.307 9402939.758 -16670733.523 10 0 60096 9000.00000 0 -15517136.180 7659465.662 -18721336.807 10 0 60096 9900.00000 0 -14206268.502 5626595.781 -20407721.768 10 0 60096 10800.00000 0 -12963661.214 3340512.496 -21697114.059 10 0 60096 11700.00000 0 -11838400.769 848114.453 -22564476.755 10 0 60096 12600.00000 0 -10871035.619 -1794687.701 -22992994.760 10 0 60096 13500.00000 0 -10091912.321 -4525055.240 -22974397.923 10 0 60096 14400.00000 0 -9519960.643 -7275598.526 -22509117.062 10 0 60096 15300.00000 0 -9161977.994 -9976948.818 -21606270.309 10 0 60096 16200.00000 0 -9012442.317 -12560418.117 -20283480.429 10 0 60096 17100.00000 0 -9053860.298 -14960636.837 -18566526.984 10 0 60096 18000.00000 0 -9257635.216 -17118060.072 -16488840.288 10 0 60096 18900.00000 0 -9585416.884 -18981238.740 -14090847.165 10 0 60096 19800.00000 0 -9990875.894 -20508761.767 -11419181.307 10 0 60096 20700.00000 0 -10421826.545 -21670789.165 -8525773.707 10 0 60096 21600.00000 0 -10822608.171 -22450113.038 -5466840.982 10 0 60096 22500.00000 0 -11136623.763 -22842703.291 -2301791.437 10 0 60096 23400.00000 0 -11308928.236 -22857716.404 907929.657 10 0 60096 24300.00000 0 -11288756.623 -22516968.170 4100032.862 10 0 60096 25200.00000 0 -11031885.202 -21853893.681 7212592.145 10 0 60096 26100.00000 0 -10502725.611 -20912039.282 10185243.617 10 0 60096 27000.00000 0 -9676063.431 -19743150.661 12960352.250 10 0 60096 27900.00000 0 -8538367.673 -18404937.931 15484124.151 10 0 60096 28800.00000 0 -7088615.656 -16958611.768 17707643.265 10 0 60096 29700.00000 0 -5338598.032 -15466293.947 19587812.975 10 0 60096 30600.00000 0 -3312690.292 -13988410.440 21088185.150 10 0 60096 31500.00000 0 -1047099.256 -12581175.756 22179661.288 10 0 60096 32400.00000 0 1411385.367 -11294273.048 22841052.958 10 0 60096 33300.00000 0 4007083.839 -10168826.246 23059491.269 10 0 60096 34200.00000 0 6677494.861 -9235748.276 22830677.772 10 0 60096 35100.00000 0 9355655.359 -8514533.764 22158972.025 10 0 60096 36000.00000 0 11972695.175 -8012546.284 21057313.815 10 0 60096 36900.00000 0 14460481.962 -7724829.717 19546980.978 10 0 60096 37800.00000 0 16754247.577 -7634451.603 17657186.646 10 0 60096 38700.00000 0 18795087.640 -7713364.198 15424522.689 10 0 60096 39600.00000 0 20532230.685 -7923747.310 12892259.076 10 0 60096 40500.00000 0 21924982.518 -8219776.638 10109511.745 10 0 60096 41400.00000 0 22944264.520 -8549743.247 7130294.278 10 0 60096 42300.00000 0 23573681.251 -8858434.679 4012471.308 10 0 60096 43200.00000 0 23810072.290 -9089676.793 816633.785 10 0 60096 44100.00000 0 23663524.849 -9188928.233 -2395081.895 10 0 60096 45000.00000 0 23156846.384 -9105816.809 -5560207.401 10 0 60096 45900.00000 0 22324519.399 -8796509.298 -8617164.305 10 0 60096 46800.00000 0 21211182.619 -8225812.982 -11506469.592 10 0 60096 47700.00000 0 19869702.894 -7368918.588 -14171900.436 10 0 60096 48600.00000 0 18358919.607 -6212709.464 -16561594.734 10 0 60096 49500.00000 0 16741157.149 -4756580.290 -18629065.343 10 0 60096 50400.00000 0 15079610.816 -3012729.477 -20334107.802 10 0 60096 51300.00000 0 13435716.532 -1005911.777 -21643583.713 10 0 60096 52200.00000 0 11866615.258 1227339.582 -22532064.622 10 0 60096 53100.00000 0 10422818.603 3639989.449 -22982324.124 10 0 60096 54000.00000 0 9146173.374 6176223.364 -22985669.033 10 0 60096 54900.00000 0 8068209.840 8773544.836 -22542103.655 10 0 60096 55800.00000 0 7208942.206 11365160.314 -21660324.408 10 0 60096 56700.00000 0 6576170.510 13882552.865 -20357545.309 10 0 60096 57600.00000 0 6165312.000 16258137.770 -18659158.019 10 0 60096 58500.00000 0 5959767.761 18427889.819 -16598233.281 10 0 60096 59400.00000 0 5931807.830 20333833.278 -14214873.572 10 0 60096 60300.00000 0 6043936.256 21926291.271 -11555429.694 10 0 60096 61200.00000 0 6250677.411 23165801.313 -8671596.602 10 0 60096 62100.00000 0 6500707.185 24024617.713 -5619406.243 10 0 60096 63000.00000 0 6739238.215 24487738.890 -2458137.109 10 0 60096 63900.00000 0 6910557.711 24553417.545 750838.024 10 0 60096 64800.00000 0 6960610.084 24233133.277 3945243.565 10 0 60096 65700.00000 0 6839514.864 23551029.846 7063108.460 10 0 60096 66600.00000 0 6503913.221 22542841.553 10043965.858 10 0 60096 67500.00000 0 5919043.817 21254354.585 12830021.846 10 0 60096 68400.00000 0 5060460.153 19739468.385 15367270.829 10 0 60096 69300.00000 0 3915316.761 18057938.612 17606536.315 10 0 60096 70200.00000 0 2483169.653 16272896.211 19504417.531 10 0 60096 71100.00000 0 776256.692 14448246.134 21024124.281 10 0 60096 72000.00000 0 -1180754.803 12646053.904 22136184.614 10 0 60096 72900.00000 0 -3351543.915 10924028.462 22819012.368 10 0 60096 73800.00000 0 -5689404.531 9333205.472 23059324.186 10 0 60096 74700.00000 0 -8138955.042 7915926.867 22852398.311 10 0 60096 75600.00000 0 -10638219.880 6704200.079 22202170.205 10 0 60096 76500.00000 0 -13120997.994 5718504.671 21121162.902 10 0 60096 77400.00000 0 -15519421.307 4967095.676 19630252.851 10 0 60096 78300.00000 0 -17766598.015 4445832.384 17758274.959 10 0 60096 79200.00000 0 -19799231.742 4138539.534 15541473.452 10 0 60096 80100.00000 0 -21560107.964 4017885.713 13022808.119 10 0 60096 81000.00000 0 -23000344.285 4046742.035 10251128.392 10 0 60096 81900.00000 0 -24081310.400 4179963.876 7280230.417 10 0 60096 82800.00000 0 -24776137.047 4366520.393 4167814.901 10 0 60096 83700.00000 0 -25070750.173 4551881.574 974365.774 10 0 60096 84600.00000 0 -24964386.325 4680561.300 -2238028.461 10 0 60096 85500.00000 0 -24469567.080 4698707.991 -5406887.195 99